Starlink 31515

operational
NORAD ID: 59476 Int'l Des: 2024-068 Owner: SPXS Country: US Constellation: starlink
LEOCIRCULAR

关于 Starlink 31515

正在加载描述...

实时位置

正在加载3D地球...

即将过境

高度历史

Altitude vs Time

uPlot chart will show altitude changes over time

两行轨道根数

1 59476U 24068X 25257.21579427 -.00000920 00000-0 -23905-4 0 9995
2 59476 43.0039 311.1173 0000668 204.5507 155.5313 15.27582810 81531
Epoch: Sep 14, 2025 • Age: 46 hours

当前状态

高度 482.9 km
速度 7.63 km/s
星下点 3.15°N, 92.17°W
发射日期 Apr 10, 2024
运行时间 1.4 years
类型 internet

技术详情

分类 Payload
质量 730.00 kg
干质量 700.00 kg
总质量 730.00 kg
长度 0.30 m
直径 4.10 m
跨度 29.00 m
形状 Box + pan
制造商 SPXS
平台类型 Starlink V2M
阶段状态 In Orbit
所有者/国家 SPXS/US

大型星座

Loading constellations...